Regional Weather Roundup
Issued by NWS Sterling, VA

Home | Current Version | Previous Version | Text Only | Print | Product List | Glossary Off
Versions: 1 2 3 4 5 6 7 8 9 10 11 12 13 14 15 16 17 18 19 20 21 22 23 24 25 26 27 28 29 30 31 32 33 34 35 36 37 38 39 40 41 42 43 44 45 46 47 48 49 50

000
ASUS41 KLWX 080510
RWRLWX

REGIONAL WEATHER ROUNDUP
NATIONAL WEATHER SERVICE BALTIMORE MD/WASHINGTON DC
1200 AM EST MON FEB 08 2016

Note: "FAIR" indicates few or no clouds below 12,000 feet
with no significant weather and/or obstructions to visibility.
 TC=TEMPERATURE CELSIUS

 * =Non NWS site. Station does not report precipitation (e.g. rain,
    snow, etc.), thunder, or fog.

DCZ001-MDZ009-015-VAZ040>042-051-053>054-080600-
WASHINGTON METRO

CITY           SKY/WX    TMP DP  RH WIND       PRES   REMARKS
WASHINGTON NAT CLOUDY    40  24  53 N10       29.86F
DULLES         MOCLDY    34  22  61 NW6       29.86F
ANDREWS AFB    MOCLDY    36  24  62 N10       29.82F WCI  28
FT BELVOIR     CLOUDY    39  21  48 VRB5      29.85F
QUANTICO       FAIR      41  22  46 N9        29.86F
COLLEGE PARK*  FAIR      36  27  69 CALM      29.85F
LEESBURG*      FAIR      36  28  75 N7        29.87F
MANASSAS*      FAIR      36  25  64 N6        29.86F
GAITHERSBURG*  MOCLDY    34  19  55 N3        29.88F

$$

MDZ006>007-011-014-080600-
BALTIMORE METRO

CITY           SKY/WX    TMP DP  RH WIND       PRES   REMARKS
BWI AIRPORT    CLOUDY    38  22  52 N6        29.85F
MD SCIENCE CTR   N/A     40  22  48 MISG      29.86F
MARTIN STATE   CLOUDY    37  27  65 NW5       29.87F
ANNAPOLIS      CLOUDY    40  25  55 N9        29.83F
FORT MEADE*    CLOUDY    34  25  69 N3        29.88F

$$

MDZ012-015-019>023-080600-
MARYLAND EASTERN SHORE

CITY           SKY/WX    TMP DP  RH WIND       PRES   REMARKS
OCEAN CITY     CLOUDY    42  34  73 NE23G31   29.71F
SALISBURY      CLOUDY    41  31  67 N14G21    29.73F
BAY BRIDGE AP*   N/A     37  28  70 N9        29.84F
CAMBRIDGE*     CLOUDY    37  27  65 N10       29.78F
EASTON*        CLOUDY    38  27  62 NE12      29.84F

$$

MDZ017>025-080600-
SOUTHERN MARYLAND

CITY           SKY/WX    TMP DP  RH WIND       PRES   REMARKS
PATUXENT RIVER CLOUDY    40  26  57 N16       29.79F
ST INIGOES     CLOUDY    40  26  57 VRB7      29.78F
LEONARDTOWN*   CLOUDY    39  23  52 N6        29.81F

$$

MDZ003>005-080600-
NORTH CENTRAL MARYLAND

CITY           SKY/WX    TMP DP  RH WIND       PRES   REMARKS
FREDERICK*     MOCLDY    28  27  93 CALM      29.90F
HAGERSTOWN APT CLOUDY    32  21  64 N8        29.85F WCI  25
WESTMINSTER*   MOCLDY    34  27  75 NE5       29.85F

$$

MDZ501>502-080600-
WESTERN MARYLAND

CITY           SKY/WX    TMP DP  RH WIND       PRES   REMARKS
OAKLAND*       CLOUDY    34  21  60 CALM      29.80F
CUMBERLAND*    CLEAR     30  28  93 CALM      29.91F

$$

VAZ025>031-080600-
SHENANDOAH VALLEY

CITY           SKY/WX    TMP DP  RH WIND       PRES   REMARKS
WINCHESTER*    FAIR      32  23  69 NW5       29.86F
FRONT ROYAL*   FAIR      28  23  80 CALM      29.85F
LURAY*         FAIR      27  23  86 CALM      29.86F
NEW MARKET*    FAIR      25  23  91 CALM      29.85F
STAUNTON*      FAIR      29  25  87 CALM      29.87F
WAYNESBORO*    FAIR      26  23  87 CALM      29.85F

$$

WVZ021-048>050-054>055-080600-
EASTERN WEST VIRGINIA PANHANDLE

CITY           SKY/WX    TMP DP  RH WIND       PRES   REMARKS
MARTINSBURG    FAIR      26  20  77 CALM      29.86F
PETERSBURG*    FAIR      27  25  91 CALM      29.88F

$$

VAZ036>039-050-080600-
CENTRAL FOOTHILLS

CITY           SKY/WX    TMP DP  RH WIND       PRES   REMARKS
CHARLOTTESVILL FAIR      34  22  61 CALM      29.85F
CULPEPER*      FAIR      29  23  78 NW3       29.87F
ORANGE*        FAIR      34  23  64 CALM      29.86F
GORDONSVILLE*  FAIR      36  22  58 N3        29.84F
WARRENTON*     FAIR      31  27  85 CALM      29.85F

$$

VAZ055>057-080600-
NORTH AND CENTRAL PIEDMONT

CITY           SKY/WX    TMP DP  RH WIND       PRES   REMARKS
FREDERICKSBRG* FAIR      37  24  58 NW5       29.84F
STAFFORD*      FAIR      35  22  59 NW6       29.88F

$$

NCZ024-NYZ072-PAZ021-071-VAZ022-071-080600-
OTHER REGIONAL OBSERVATIONS

CITY           SKY/WX    TMP DP  RH WIND       PRES   REMARKS
NEW YORK CITY  CLOUDY    39  25  57 E15G22    29.92F
PHILADELPHIA   CLOUDY    41  23  48 NE15G23   29.86F
PITTSBURGH     PTCLDY    36  22  56 S5        29.81F
ROANOKE        FAIR      32  25  75 CALM      29.87F
RICHMOND       CLOUDY    39  21  48 N15       29.80F
RALEIGH        CLOUDY    39  21  48 VRB3      29.83F

$$

ANZ530>537-080600-
MARINE OBSERVATIONS

STATION/POSITION TIME  TEMP    WIND        PRES
                       AIR SEA DIR/SP/G
                 (UTC) (F)     (DEG/KT/KT) (MB)
THOMAS PT LIGHT  NOT AVBL
BALT KEY BRIDGE  0400   39     360/  5/  5 1011.8F
COVE POINT       0400   39      10/ 15/ 21 1010.2F
LEWISETTA        0400   41 42   10/ 10/ 14 1008.9F
SOLOMONS ISLAND  0400   40 41  350/ 12/ 18   N/A

$$





USA.gov is the U.S. government's official web portal to all federal, state and local government web resources and services.